"Period start","avg(HW err(1)/warn(2) (#))","avg(Visibility (m))","avg(Weather code (#))","avg(Precip intensity (mm/h))","min(HW err(1)/warn(2) (#))","max(HW err(1)/warn(2) (#))","std(HW err(1)/warn(2) (#))","med(HW err(1)/warn(2) (#))","min(Visibility (m))","max(Visibility (m))","std(Visibility (m))","med(Visibility (m))","min(Weather code (#))","max(Weather code (#))","std(Weather code (#))","med(Weather code (#))","min(Precip intensity (mm/h))","max(Precip intensity (mm/h))","std(Precip intensity (mm/h))","med(Precip intensity (mm/h))"
2014-07-28 00:00:00,1,45406,0,0.00,0,2,1,2,34615,50000,5412,48038,0,0,0,0,0.00,0.00,0.00,0.00
2014-07-28 00:10:00,2,44005,0,0.00,0,2,1,2,36817,50000,5010,43291,0,0,0,0,0.00,0.00,0.00,0.00
2014-07-28 00:20:00,2,43367,0,0.00,2,2,0,2,31659,50000,6446,44736,0,0,0,0,0.00,0.00,0.00,0.00
2014-07-28 00:30:00,2,45783,0,0.00,2,2,0,2,36131,50000,4124,45675,0,0,0,0,0.00,0.00,0.00,0.00
2014-07-28 00:40:00,1,44937,0,0.00,0,2,1,2,37179,50000,4720,46598,0,0,0,0,0.00,0.00,0.00,0.00
2014-07-28 00:50:00,1,48876,0,0.00,0,2,1,2,44759,50000,1822,50000,0,0,0,0,0.00,0.00,0.00,0.00
2014-07-28 01:00:00,1,46151,0,0.00,0,2,1,0,39949,50000,3526,47512,0,0,0,0,0.00,0.00,0.00,0.00
2014-07-28 01:10:00,1,49855,0,0.00,0,2,1,0,48552,50000,434,50000,0,0,0,0,0.00,0.00,0.00,0.00
2014-07-28 01:20:00,0,48453,0,0.00,0,0,0,0,43521,50000,2445,49796,0,0,0,0,0.00,0.00,0.00,0.00
2014-07-28 01:30:00,0,48180,0,0.00,0,2,1,0,41941,50000,2564,49798,0,0,0,0,0.00,0.00,0.00,0.00
2014-07-28 01:40:00,1,48109,0,0.00,0,2,1,0,43953,50000,2258,49110,0,0,0,0,0.00,0.00,0.00,0.00
2014-07-28 01:50:00,0,47087,0,0.00,0,2,1,0,38542,50000,4105,50000,0,0,0,0,0.00,0.00,0.00,0.00
2014-07-28 02:00:00,0,48692,0,0.00,0,0,0,0,43152,50000,2233,50000,0,0,0,0,0.00,0.00,0.00,0.00
2014-07-28 02:10:00,0,50000,0,0.00,0,2,1,0,50000,50000,0,50000,0,0,0,0,0.00,0.00,0.00,0.00
2014-07-28 02:20:00,2,44934,0,0.00,0,2,1,2,36221,50000,5010,46422,0,0,0,0,0.00,0.00,0.00,0.00
2014-07-28 02:30:00,2,44997,0,0.00,2,2,0,2,38683,50000,3915,45016,0,0,0,0,0.00,0.00,0.00,0.00
2014-07-28 02:40:00,2,45441,0,0.00,0,2,1,2,37975,50000,4054,46784,0,0,0,0,0.00,0.00,0.00,0.00
2014-07-28 02:50:00,2,42562,0,0.00,0,2,1,2,29189,50000,6789,43956,0,0,0,0,0.00,0.00,0.00,0.00
2014-07-28 03:00:00,1,41584,0,0.00,0,2,1,2,25397,50000,8591,46291,0,0,0,0,0.00,0.00,0.00,0.00
2014-07-28 03:10:00,2,43442,0,0.00,0,2,1,2,23433,50000,9075,47102,0,0,0,0,0.00,0.00,0.00,0.00
2014-07-28 03:20:00,2,40690,0,0.00,0,2,1,2,34292,50000,5462,38182,0,0,0,0,0.00,0.00,0.00,0.00
2014-07-28 03:30:00,2,43707,0,0.00,2,2,0,2,38464,50000,3807,43156,0,0,0,0,0.00,0.00,0.00,0.00
2014-07-28 03:40:00,0,46379,0,0.00,0,2,1,0,33541,50000,5132,49381,0,0,0,0,0.00,0.00,0.00,0.00
2014-07-28 03:50:00,0,46296,0,0.00,0,0,0,0,39866,50000,4249,48569,0,0,0,0,0.00,0.00,0.00,0.00
2014-07-28 04:00:00,0,47499,0,0.00,0,2,1,0,36231,50000,4266,50000,0,0,0,0,0.00,0.00,0.00,0.00
2014-07-28 04:10:00,0,41568,0,0.00,0,0,0,0,27382,50000,7710,43109,0,0,0,0,0.00,0.00,0.00,0.00
2014-07-28 04:20:00,0,46965,0,0.00,0,0,0,0,41617,50000,2963,47534,0,0,0,0,0.00,0.00,0.00,0.00
2014-07-28 04:30:00,0,48414,0,0.00,0,0,0,0,44849,50000,1987,49803,0,0,0,0,0.00,0.00,0.00,0.00
2014-07-28 04:40:00,0,46893,0,0.00,0,0,0,0,31957,50000,5314,49100,0,0,0,0,0.00,0.00,0.00,0.00
2014-07-28 04:50:00,0,45772,0,0.00,0,0,0,0,32052,50000,5390,47332,0,0,0,0,0.00,0.00,0.00,0.00
2014-07-28 05:00:00,0,47904,0,0.00,0,0,0,0,41590,50000,3030,49974,0,0,0,0,0.00,0.00,0.00,0.00
2014-07-28 05:10:00,0,48096,0,0.00,0,0,0,0,41880,50000,2676,49986,0,0,0,0,0.00,0.00,0.00,0.00
2014-07-28 05:20:00,0,44822,0,0.00,0,0,0,0,38333,50000,4854,45258,0,0,0,0,0.00,0.00,0.00,0.00
2014-07-28 05:30:00,0,49211,0,0.00,0,0,0,0,44268,50000,1769,50000,0,0,0,0,0.00,0.00,0.00,0.00
2014-07-28 05:40:00,0,48567,0,0.00,0,0,0,0,42986,50000,2490,50000,0,0,0,0,0.00,0.00,0.00,0.00
2014-07-28 05:50:00,0,46532,0,0.00,0,0,0,0,37944,50000,4228,47846,0,0,0,0,0.00,0.00,0.00,0.00
2014-07-28 06:00:00,0,49105,0,0.00,0,0,0,0,42499,50000,2221,50000,0,0,0,0,0.00,0.00,0.00,0.00
2014-07-28 06:10:00,0,49451,0,0.00,0,0,0,0,46442,50000,1156,50000,0,0,0,0,0.00,0.00,0.00,0.00
2014-07-28 06:20:00,0,46486,0,0.00,0,0,0,0,35731,50000,5333,49076,0,0,0,0,0.00,0.00,0.00,0.00
2014-07-28 06:30:00,0,49321,0,0.00,0,0,0,0,47294,50000,990,49890,0,0,0,0,0.00,0.00,0.00,0.00
2014-07-28 06:40:00,0,48230,0,0.00,0,0,0,0,44718,50000,1890,48638,0,0,0,0,0.00,0.00,0.00,0.00
2014-07-28 06:50:00,0,49828,0,0.00,0,0,0,0,48541,50000,436,50000,0,0,0,0,0.00,0.00,0.00,0.00
2014-07-28 07:00:00,0,48061,0,0.00,0,0,0,0,42331,50000,3004,49862,0,0,0,0,0.00,0.00,0.00,0.00
2014-07-28 07:10:00,0,48969,0,0.00,0,0,0,0,44794,50000,1711,50000,0,0,0,0,0.00,0.00,0.00,0.00
2014-07-28 07:20:00,0,47546,0,0.00,0,0,0,0,40411,50000,2729,47992,0,0,0,0,0.00,0.00,0.00,0.00
2014-07-28 07:30:00,0,47696,0,0.00,0,0,0,0,43516,50000,2275,48340,0,0,0,0,0.00,0.00,0.00,0.00
2014-07-28 07:40:00,0,48808,0,0.00,0,0,0,0,41757,50000,2462,50000,0,0,0,0,0.00,0.00,0.00,0.00
2014-07-28 07:50:00,0,46996,0,0.00,0,0,0,0,43972,50000,2462,46800,0,0,0,0,0.00,0.00,0.00,0.00
2014-07-28 08:00:00,0,48585,0,0.00,0,0,0,0,43376,50000,1883,48722,0,0,0,0,0.00,0.00,0.00,0.00
2014-07-28 08:10:00,0,48199,0,0.00,0,0,0,0,38568,50000,3662,50000,0,0,0,0,0.00,0.00,0.00,0.00
2014-07-28 08:20:00,0,49950,0,0.00,0,0,0,0,49501,50000,150,50000,0,0,0,0,0.00,0.00,0.00,0.00
2014-07-28 08:30:00,0,50000,0,0.00,0,0,0,0,50000,50000,0,50000,0,0,0,0,0.00,0.00,0.00,0.00
2014-07-28 08:40:00,0,46280,0,0.00,0,0,0,0,35119,50000,4656,48241,0,0,0,0,0.00,0.00,0.00,0.00
2014-07-28 08:50:00,0,45605,0,0.00,0,0,0,0,33833,50000,5379,47910,0,0,0,0,0.00,0.00,0.00,0.00
2014-07-28 09:00:00,0,48018,0,0.00,0,0,0,0,44234,50000,2070,49016,0,0,0,0,0.00,0.00,0.00,0.00
2014-07-28 09:10:00,0,46434,0,0.00,0,0,0,0,40011,50000,3432,46518,0,0,0,0,0.00,0.00,0.00,0.00
2014-07-28 09:20:00,0,49266,0,0.00,0,0,0,0,44223,50000,1709,50000,0,0,0,0,0.00,0.00,0.00,0.00
2014-07-28 09:30:00,0,48348,0,0.00,0,0,0,0,45967,50000,1664,48782,0,0,0,0,0.00,0.00,0.00,0.00
2014-07-28 09:40:00,0,49372,0,0.00,0,0,0,0,46239,50000,1203,50000,0,0,0,0,0.00,0.00,0.00,0.00
2014-07-28 09:50:00,0,49012,0,0.00,0,0,0,0,44667,50000,1632,50000,0,0,0,0,0.00,0.00,0.00,0.00
2014-07-28 10:00:00,0,49814,0,0.00,0,0,0,0,48148,50000,555,50000,0,0,0,0,0.00,0.00,0.00,0.00
2014-07-28 10:10:00,0,47453,0,0.00,0,0,0,0,40619,50000,3529,49668,0,0,0,0,0.00,0.00,0.00,0.00
2014-07-28 10:20:00,0,48928,0,0.00,0,0,0,0,45121,50000,1534,49614,0,0,0,0,0.00,0.00,0.00,0.00
2014-07-28 10:30:00,0,48725,0,0.00,0,0,0,0,42453,50000,2266,50000,0,0,0,0,0.00,0.00,0.00,0.00
2014-07-28 10:40:00,0,45886,0,0.00,0,0,0,0,33692,50000,5970,50000,0,0,0,0,0.00,0.00,0.00,0.00
2014-07-28 10:50:00,0,48908,0,0.00,0,0,0,0,44530,50000,2112,50000,0,0,0,0,0.00,0.00,0.00,0.00
2014-07-28 11:00:00,0,46444,0,0.00,0,0,0,0,39942,50000,3122,47331,0,0,0,0,0.00,0.00,0.00,0.00
2014-07-28 11:10:00,0,46436,0,0.00,0,0,0,0,39087,50000,3468,47164,0,0,0,0,0.00,0.00,0.00,0.00
2014-07-28 11:20:00,1,45082,0,0.00,0,2,1,1,36754,50000,4243,46166,0,0,0,0,0.00,0.00,0.00,0.00
2014-07-28 11:30:00,2,40125,0,0.00,2,2,0,2,26073,50000,8403,41876,0,0,0,0,0.00,0.00,0.00,0.00
2014-07-28 11:40:00,2,40046,0,0.00,2,2,0,2,31232,50000,6795,38738,0,0,0,0,0.00,0.00,0.00,0.00
2014-07-28 11:50:00,2,40815,0,0.00,2,2,0,2,29389,47906,4993,41519,0,0,0,0,0.00,0.00,0.00,0.00
2014-07-28 12:00:00,0,44318,0,0.00,0,0,0,0,23973,50000,8944,49859,0,0,0,0,0.00,0.00,0.00,0.00
2014-07-28 12:10:00,0,49927,0,0.00,0,0,0,0,49506,50000,157,50000,0,0,0,0,0.00,0.00,0.00,0.00
2014-07-28 12:20:00,0,49924,0,0.00,0,0,0,0,49245,50000,226,50000,0,0,0,0,0.00,0.00,0.00,0.00
2014-07-28 12:30:00,0,49879,0,0.00,0,0,0,0,48791,50000,363,50000,0,0,0,0,0.00,0.00,0.00,0.00
2014-07-28 12:40:00,0,49989,0,0.00,0,0,0,0,49893,50000,32,50000,0,0,0,0,0.00,0.00,0.00,0.00
2014-07-28 12:50:00,0,49367,0,0.00,0,0,0,0,43668,50000,1900,50000,0,0,0,0,0.00,0.00,0.00,0.00
2014-07-28 13:00:00,0,49676,0,0.00,0,0,0,0,47699,50000,716,50000,0,0,0,0,0.00,0.00,0.00,0.00
2014-07-28 13:10:00,0,50000,0,0.00,0,0,0,0,50000,50000,0,50000,0,0,0,0,0.00,0.00,0.00,0.00
2014-07-28 13:20:00,0,49940,0,0.00,0,0,0,0,49396,50000,181,50000,0,0,0,0,0.00,0.00,0.00,0.00
2014-07-28 13:30:00,0,49999,0,0.00,0,0,0,0,49986,50000,4,50000,0,0,0,0,0.00,0.00,0.00,0.00
2014-07-28 13:40:00,0,50000,0,0.00,0,0,0,0,50000,50000,0,50000,0,0,0,0,0.00,0.00,0.00,0.00
2014-07-28 13:50:00,0,49681,0,0.00,0,0,0,0,47085,50000,869,50000,0,0,0,0,0.00,0.00,0.00,0.00
2014-07-28 14:00:00,0,50000,0,0.00,0,0,0,0,50000,50000,0,50000,0,0,0,0,0.00,0.00,0.00,0.00
2014-07-28 14:10:00,0,49989,0,0.00,0,0,0,0,49890,50000,33,50000,0,0,0,0,0.00,0.00,0.00,0.00
2014-07-28 14:20:00,0,50000,0,0.00,0,0,0,0,50000,50000,0,50000,0,0,0,0,0.00,0.00,0.00,0.00
2014-07-28 14:30:00,0,50000,0,0.00,0,0,0,0,50000,50000,0,50000,0,0,0,0,0.00,0.00,0.00,0.00
2014-07-28 14:40:00,0,50000,0,0.00,0,0,0,0,50000,50000,0,50000,0,0,0,0,0.00,0.00,0.00,0.00
2014-07-28 14:50:00,0,49921,0,0.00,0,0,0,0,49211,50000,237,50000,0,0,0,0,0.00,0.00,0.00,0.00
2014-07-28 15:00:00,0,49857,0,0.00,0,0,0,0,48570,50000,429,50000,0,0,0,0,0.00,0.00,0.00,0.00
2014-07-28 15:10:00,0,50000,0,0.00,0,0,0,0,50000,50000,0,50000,0,0,0,0,0.00,0.00,0.00,0.00
2014-07-28 15:20:00,0,49914,0,0.00,0,0,0,0,49142,50000,257,50000,0,0,0,0,0.00,0.00,0.00,0.00
2014-07-28 15:30:00,0,50000,0,0.00,0,0,0,0,50000,50000,0,50000,0,0,0,0,0.00,0.00,0.00,0.00
2014-07-28 15:40:00,0,50000,0,0.00,0,0,0,0,50000,50000,0,50000,0,0,0,0,0.00,0.00,0.00,0.00
2014-07-28 15:50:00,0,50000,0,0.00,0,0,0,0,50000,50000,0,50000,0,0,0,0,0.00,0.00,0.00,0.00
2014-07-28 16:00:00,0,49936,0,0.00,0,0,0,0,49356,50000,193,50000,0,0,0,0,0.00,0.00,0.00,0.00
2014-07-28 16:10:00,0,49883,0,0.00,0,0,0,0,48833,50000,350,50000,0,0,0,0,0.00,0.00,0.00,0.00
2014-07-28 16:20:00,0,49960,0,0.00,0,0,0,0,49601,50000,120,50000,0,0,0,0,0.00,0.00,0.00,0.00
2014-07-28 16:30:00,0,50000,0,0.00,0,0,0,0,50000,50000,0,50000,0,0,0,0,0.00,0.00,0.00,0.00
2014-07-28 16:40:00,0,49862,0,0.00,0,0,0,0,48621,50000,414,50000,0,0,0,0,0.00,0.00,0.00,0.00
2014-07-28 16:50:00,0,50000,0,0.00,0,0,0,0,50000,50000,0,50000,0,0,0,0,0.00,0.00,0.00,0.00
2014-07-28 17:00:00,0,50000,0,0.00,0,0,0,0,50000,50000,0,50000,0,0,0,0,0.00,0.00,0.00,0.00
2014-07-28 17:10:00,0,50000,0,0.00,0,0,0,0,50000,50000,0,50000,0,0,0,0,0.00,0.00,0.00,0.00
2014-07-28 17:20:00,0,49935,0,0.00,0,0,0,0,49408,50000,177,50000,0,0,0,0,0.00,0.00,0.00,0.00
2014-07-28 17:30:00,0,50000,0,0.00,0,0,0,0,50000,50000,0,50000,0,0,0,0,0.00,0.00,0.00,0.00
2014-07-28 17:40:00,0,50000,0,0.00,0,0,0,0,50000,50000,0,50000,0,0,0,0,0.00,0.00,0.00,0.00
2014-07-28 17:50:00,0,50000,0,0.00,0,0,0,0,50000,50000,0,50000,0,0,0,0,0.00,0.00,0.00,0.00
2014-07-28 18:00:00,0,50000,0,0.00,0,0,0,0,50000,50000,0,50000,0,0,0,0,0.00,0.00,0.00,0.00
2014-07-28 18:10:00,0,50000,0,0.00,0,0,0,0,50000,50000,0,50000,0,0,0,0,0.00,0.00,0.00,0.00
2014-07-28 18:20:00,0,50000,0,0.00,0,0,0,0,50000,50000,0,50000,0,0,0,0,0.00,0.00,0.00,0.00
2014-07-28 18:30:00,0,50000,0,0.00,0,0,0,0,50000,50000,0,50000,0,0,0,0,0.00,0.00,0.00,0.00
2014-07-28 18:40:00,0,50000,0,0.00,0,0,0,0,50000,50000,0,50000,0,0,0,0,0.00,0.00,0.00,0.00
2014-07-28 18:50:00,0,49978,0,0.00,0,0,0,0,49775,50000,68,50000,0,0,0,0,0.00,0.00,0.00,0.00
2014-07-28 19:00:00,0,49949,0,0.00,0,0,0,0,49639,50000,113,50000,0,0,0,0,0.00,0.00,0.00,0.00
2014-07-28 19:10:00,0,50000,0,0.00,0,0,0,0,50000,50000,0,50000,0,0,0,0,0.00,0.00,0.00,0.00
2014-07-28 19:20:00,0,49971,0,0.00,0,0,0,0,49709,50000,87,50000,0,0,0,0,0.00,0.00,0.00,0.00
2014-07-28 19:30:00,0,48404,0,0.00,0,0,0,0,42189,50000,2298,49414,0,0,0,0,0.00,0.00,0.00,0.00
2014-07-28 19:40:00,0,50000,0,0.00,0,0,0,0,50000,50000,0,50000,0,0,0,0,0.00,0.00,0.00,0.00
2014-07-28 19:50:00,0,49980,0,0.00,0,0,0,0,49802,50000,59,50000,0,0,0,0,0.00,0.00,0.00,0.00
2014-07-28 20:00:00,0,49534,0,0.00,0,0,0,0,48038,50000,747,50000,0,0,0,0,0.00,0.00,0.00,0.00
2014-07-28 20:10:00,0,50000,0,0.00,0,0,0,0,50000,50000,0,50000,0,0,0,0,0.00,0.00,0.00,0.00
2014-07-28 20:20:00,0,49854,0,0.00,0,0,0,0,48728,50000,380,50000,0,0,0,0,0.00,0.00,0.00,0.00
2014-07-28 20:30:00,0,50000,0,0.00,0,0,0,0,50000,50000,0,50000,0,0,0,0,0.00,0.00,0.00,0.00
2014-07-28 20:40:00,0,49465,0,0.00,0,0,0,0,45215,50000,1427,50000,0,0,0,0,0.00,0.00,0.00,0.00
2014-07-28 20:50:00,0,40430,0,0.00,0,0,0,0,27299,50000,7932,41676,0,0,0,0,0.00,0.00,0.00,0.00
2014-07-28 21:00:00,0,13070,0,0.00,0,0,0,0,6330,26840,6690,9906,0,0,0,0,0.00,0.00,0.00,0.00
2014-07-28 21:10:00,0,9485,8,0.00,0,0,0,0,3814,15383,3117,9693,0,10,4,10,0.00,0.00,0.00,0.00
2014-07-28 21:20:00,0,8692,10,0.00,0,0,0,0,5003,14170,2386,8422,10,10,0,10,0.00,0.00,0.00,0.00
2014-07-28 21:30:00,0,4995,10,0.00,0,0,0,0,1753,10113,2750,4302,10,10,0,10,0.00,0.00,0.00,0.00
2014-07-28 21:40:00,0,3394,10,0.00,0,0,0,0,947,9715,2494,2684,10,10,0,10,0.00,0.00,0.00,0.00
2014-07-28 21:50:00,0,12869,10,0.00,0,0,0,0,8756,17047,2498,12826,10,10,0,10,0.00,0.00,0.00,0.00
2014-07-28 22:00:00,0,8360,7,0.00,0,0,0,0,908,21612,7168,5280,0,10,5,10,0.00,0.00,0.00,0.00
2014-07-28 22:10:00,0,10136,10,0.00,0,0,0,0,2210,20122,5676,9535,10,10,0,10,0.00,0.00,0.00,0.00
2014-07-28 22:20:00,0,4548,10,0.00,0,0,0,0,950,14925,4071,2913,10,10,0,10,0.00,0.00,0.00,0.00
2014-07-28 22:30:00,0,5292,10,0.00,0,0,0,0,964,17976,5198,3050,10,10,0,10,0.00,0.00,0.00,0.00
2014-07-28 22:40:00,0,10044,10,0.00,0,0,0,0,1881,25251,6971,8938,10,10,0,10,0.00,0.00,0.00,0.00
2014-07-28 22:50:00,0,11057,10,0.00,0,0,0,0,1996,28090,8681,8658,10,10,0,10,0.00,0.00,0.00,0.00
2014-07-28 23:00:00,0,5261,10,0.00,0,0,0,0,1124,11949,3021,5186,10,10,0,10,0.00,0.00,0.00,0.00
2014-07-28 23:10:00,0,16094,10,0.00,0,0,0,0,3700,28291,9258,17132,10,10,0,10,0.00,0.00,0.00,0.00
2014-07-28 23:20:00,0,15590,4,0.00,0,0,0,0,1244,32921,12003,17469,0,10,5,0,0.00,0.00,0.00,0.00
2014-07-28 23:30:00,0,9750,10,0.00,0,0,0,0,1291,26138,8238,8302,10,10,0,10,0.00,0.00,0.00,0.00
2014-07-28 23:40:00,0,8355,10,0.00,0,0,0,0,910,31907,9904,2794,10,10,0,10,0.00,0.00,0.00,0.00
2014-07-28 23:50:00,0,2010,10,0.00,0,0,0,0,927,4404,1127,1528,10,10,0,10,0.00,0.00,0.00,0.00
